�������l�o���
Date,Time,MP-1(��Sv/h),MP-2(��Sv/h),MP-3(��Sv/h),MP-4(��Sv/h),MP-5(��Sv/h),MP-6(��Sv/h),MP-7(��Sv/h),MP-8(��Sv/h),����,����(m/s),���J
2018/06/21,00:00,0.836,1.166,0.819,1.473,1.018,0.464,0.802,0.771,�k�k��,2.3,�L
2018/06/21,00:10,0.835,1.165,0.818,1.475,1.017,0.465,0.804,0.769,�k�k��,2.0,�L
2018/06/21,00:20,0.837,1.164,0.818,1.474,1.016,0.464,0.802,0.771,�k�k��,2.3,�L
2018/06/21,00:30,0.838,1.162,0.818,1.474,1.018,0.464,0.802,0.770,�k�k��,2.2,�L
2018/06/21,00:40,0.836,1.164,0.818,1.472,1.016,0.465,0.801,0.769,�k�k��,2.6,�L
2018/06/21,00:50,0.838,1.166,0.816,1.473,1.016,0.467,0.801,0.770,�k�k��,2.9,�L
2018/06/21,01:00,0.837,1.167,0.819,1.473,1.015,0.463,0.803,0.769,�k�k��,3.0,�L
2018/06/21,01:10,0.836,1.168,0.817,1.471,1.015,0.465,0.800,0.771,�k�k��,3.1,�L
2018/06/21,01:20,0.837,1.168,0.818,1.472,1.019,0.464,0.803,0.770,�k�k��,2.6,�L
2018/06/21,01:30,0.839,1.168,0.819,1.473,1.019,0.464,0.802,0.771,�k�k��,3.5,�L
2018/06/21,01:40,0.840,1.165,0.818,1.472,1.020,0.464,0.802,0.771,�k�k��,3.6,�L
2018/06/21,01:50,0.836,1.168,0.820,1.476,1.019,0.464,0.802,0.771,�k�k��,3.8,�L
2018/06/21,02:00,0.838,1.165,0.819,1.476,1.019,0.463,0.802,0.771,�k,4.7,�L
2018/06/21,02:10,0.840,1.169,0.818,1.475,1.016,0.464,0.803,0.772,�k,3.9,�L
2018/06/21,02:20,0.838,1.167,0.819,1.476,1.021,0.465,0.803,0.770,�k,4.1,��
2018/06/21,02:30,0.839,1.167,0.819,1.476,1.022,0.466,0.805,0.771,�k�k��,4.1,��
2018/06/21,02:40,0.839,1.172,0.821,1.479,1.020,0.465,0.804,0.771,�k,4.1,��
2018/06/21,02:50,0.841,1.169,0.822,1.476,1.021,0.465,0.804,0.771,�k,3.8,��
2018/06/21,03:00,0.839,1.171,0.819,1.478,1.021,0.464,0.805,0.771,�k,3.6,�L
2018/06/21,03:10,0.841,1.171,0.821,1.476,1.020,0.466,0.804,0.771,�k,3.5,��
2018/06/21,03:20,0.842,1.170,0.821,1.478,1.021,0.464,0.805,0.771,�k,2.9,�L
2018/06/21,03:30,0.840,1.170,0.820,1.481,1.021,0.465,0.804,0.772,�k,2.6,�L
2018/06/21,03:40,0.841,1.172,0.821,1.481,1.023,0.465,0.804,0.772,�k,4.1,�L
2018/06/21,03:50,0.840,1.173,0.821,1.482,1.022,0.466,0.804,0.770,�k,4.3,�L
2018/06/21,04:00,0.840,1.173,0.821,1.478,1.023,0.465,0.806,0.772,�k,5.0,�L
2018/06/21,04:10,0.841,1.174,0.820,1.482,1.023,0.464,0.805,0.773,�k,5.2,�L
2018/06/21,04:20,0.839,1.173,0.821,1.480,1.023,0.466,0.805,0.772,�k,5.4,�L
2018/06/21,04:30,0.842,1.172,0.821,1.482,1.023,0.464,0.807,0.770,�k,5.4,�L
2018/06/21,04:40,0.843,1.173,0.822,1.478,1.023,0.464,0.805,0.772,�k,5.9,�L
2018/06/21,04:50,0.840,1.172,0.821,1.481,1.022,0.465,0.804,0.771,�k,5.3,�L
2018/06/21,05:00,0.840,1.172,0.822,1.483,1.025,0.465,0.806,0.772,�k,5.1,�L
2018/06/21,05:10,0.840,1.172,0.822,1.482,1.024,0.464,0.805,0.772,�k,5.5,��
2018/06/21,05:20,0.839,1.174,0.823,1.483,1.024,0.465,0.806,0.772,�k,5.3,��
2018/06/21,05:30,0.841,1.172,0.821,1.481,1.026,0.464,0.806,0.773,�k�k��,6.1,��
2018/06/21,05:40,0.841,1.173,0.821,1.483,1.026,0.464,0.806,0.774,�k�k��,4.7,��
2018/06/21,05:50,0.841,1.173,0.822,1.482,1.022,0.463,0.805,0.771,�k,4.9,��
2018/06/21,06:00,0.841,1.176,0.824,1.481,1.022,0.464,0.804,0.772,�k,5.0,�L
2018/06/21,06:10,0.842,1.173,0.821,1.483,1.025,0.463,0.804,0.772,�k,7.0,�L
2018/06/21,06:20,0.842,1.174,0.820,1.487,1.024,0.464,0.805,0.773,�k,5.5,�L
2018/06/21,06:30,0.839,1.173,0.822,1.486,1.023,0.463,0.807,0.771,�k,4.6,��
2018/06/21,06:40,0.841,1.173,0.821,1.483,1.024,0.464,0.805,0.773,�k,4.0,��
2018/06/21,06:50,0.842,1.174,0.820,1.486,1.023,0.464,0.806,0.774,�k,4.5,��
2018/06/21,07:00,0.839,1.173,0.823,1.488,1.027,0.464,0.808,0.774,�k,4.1,��
2018/06/21,07:10,0.840,1.173,0.824,1.486,1.025,0.465,0.805,0.773,�k,4.0,��
2018/06/21,07:20,0.842,1.176,0.823,1.484,1.024,0.462,0.805,0.773,�k�k��,4.6,��
2018/06/21,07:30,0.841,1.176,0.821,1.488,1.026,0.463,0.807,0.774,�k�k��,4.5,��
2018/06/21,07:40,0.839,1.177,0.822,1.487,1.026,0.464,0.807,0.773,�k�k��,5.6,�L
2018/06/21,07:50,0.838,1.175,0.821,1.485,1.021,0.463,0.808,0.773,�k,5.3,�L
2018/06/21,08:00,0.841,1.175,0.821,1.486,1.025,0.462,0.809,0.774,�k�k��,3.4,�L
2018/06/21,08:10,0.838,1.176,0.821,1.489,1.024,0.462,0.807,0.774,�k�k��,4.3,��
2018/06/21,08:20,0.838,1.175,0.823,1.486,1.023,0.463,0.810,0.775,�k�k��,4.2,��
2018/06/21,08:30,0.839,1.176,0.821,1.488,1.027,0.465,0.807,0.773,�k�k��,4.2,��
2018/06/21,08:40,0.839,1.175,0.825,1.490,1.027,0.463,0.808,0.774,�k�k��,4.6,��
2018/06/21,08:50,0.840,1.176,0.822,1.489,1.025,0.464,0.808,0.773,�k,3.8,��
2018/06/21,09:00,0.840,1.177,0.822,1.488,1.027,0.462,0.808,0.773,�k,2.9,��
2018/06/21,09:10,0.839,1.177,0.823,1.491,1.028,0.464,0.808,0.772,�k,3.7,��
2018/06/21,09:20,0.839,1.175,0.823,1.490,1.028,0.462,0.809,0.775,�k,3.7,�L
2018/06/21,09:30,0.842,1.176,0.821,1.489,1.028,0.462,0.808,0.774,�k,4.3,��
2018/06/21,09:40,0.843,1.179,0.822,1.489,1.027,0.463,0.808,0.774,�k,3.6,��
2018/06/21,09:50,0.843,1.176,0.821,1.492,1.028,0.463,0.809,0.773,�k,4.4,��
2018/06/21,10:00,0.843,1.178,0.825,1.489,1.027,0.464,0.810,0.775,�k,4.1,��
2018/06/21,10:10,0.844,1.176,0.821,1.488,1.029,0.465,0.812,0.773,�k,3.7,��
2018/06/21,10:20,0.847,1.178,0.823,1.491,1.029,0.464,0.812,0.773,�k,2.8,��
2018/06/21,10:30,0.844,1.180,0.823,1.489,1.030,0.464,0.812,0.775,�k,2.3,��
2018/06/21,10:40,0.844,1.178,0.824,1.493,1.030,0.464,0.811,0.772,�k,2.3,��
2018/06/21,10:50,0.844,1.178,0.823,1.490,1.030,0.464,0.811,0.774,�k,1.7,��
2018/06/21,11:00,0.845,1.181,0.821,1.493,1.033,0.464,0.808,0.775,�k�k��,2.6,��
2018/06/21,11:10,0.845,1.183,0.825,1.493,1.031,0.463,0.811,0.773,�k�k��,3.3,��
2018/06/21,11:20,0.846,1.183,0.824,1.493,1.032,0.464,0.811,0.775,�k�k��,3.4,��
2018/06/21,11:30,0.848,1.186,0.826,1.490,1.033,0.464,0.811,0.775,�k�k��,2.5,�L
2018/06/21,11:40,0.847,1.182,0.825,1.491,1.033,0.465,0.813,0.777,�k��,2.9,�L
2018/06/21,11:50,0.849,1.184,0.826,1.489,1.034,0.465,0.812,0.776,�k�k��,3.2,��
2018/06/21,12:00,0.843,1.184,0.826,1.490,1.036,0.466,0.812,0.774,�k�k��,3.1,��
2018/06/21,12:10,0.849,1.186,0.827,1.488,1.035,0.466,0.811,0.776,�k��,2.6,��
2018/06/21,12:20,0.846,1.185,0.826,1.491,1.035,0.465,0.812,0.775,�k�k��,2.2,��
2018/06/21,12:30,0.845,1.188,0.825,1.489,1.033,0.464,0.816,0.775,���k��,2.6,��
2018/06/21,12:40,0.847,1.188,0.826,1.489,1.035,0.465,0.813,0.777,���k��,1.7,��
2018/06/21,12:50,0.848,1.187,0.830,1.493,1.036,0.466,0.815,0.778,���쓌,1.5,��
2018/06/21,13:00,0.848,1.186,0.828,1.488,1.037,0.466,0.812,0.777,���쓌,2.2,��
2018/06/21,13:10,0.848,1.189,0.829,1.493,1.038,0.464,0.814,0.776,��쓌,3.4,��
2018/06/21,13:20,0.847,1.189,0.827,1.491,1.037,0.465,0.813,0.779,��쓌,2.5,��
2018/06/21,13:30,0.848,1.187,0.826,1.493,1.039,0.467,0.813,0.776,��쓌,3.7,��
2018/06/21,13:40,0.851,1.190,0.828,1.493,1.037,0.467,0.814,0.778,��쓌,4.0,��
2018/06/21,13:50,0.852,1.191,0.830,1.493,1.039,0.467,0.814,0.778,��쓌,3.7,��
2018/06/21,14:00,0.855,1.191,0.828,1.496,1.039,0.467,0.814,0.776,��쓌,4.0,��
2018/06/21,14:10,0.852,1.195,0.828,1.495,1.040,0.467,0.814,0.776,��쓌,4.6,��
2018/06/21,14:20,0.853,1.193,0.830,1.493,1.038,0.467,0.815,0.776,��쓌,6.0,��
2018/06/21,14:30,0.852,1.193,0.830,1.495,1.041,0.469,0.815,0.777,��쓌,5.8,��
2018/06/21,14:40,0.853,1.192,0.830,1.493,1.041,0.468,0.813,0.777,��쓌,6.3,��
2018/06/21,14:50,0.855,1.195,0.830,1.493,1.043,0.468,0.814,0.776,��,5.6,��
2018/06/21,15:00,0.854,1.194,0.829,1.496,1.042,0.467,0.813,0.777,��,6.6,��
2018/06/21,15:10,0.853,1.197,0.830,1.493,1.042,0.469,0.815,0.778,��쓌,7.8,��
2018/06/21,15:20,0.854,1.196,0.829,1.495,1.042,0.469,0.813,0.775,��,7.8,��
2018/06/21,15:30,0.854,1.198,0.829,1.497,1.044,0.469,0.816,0.779,��,7.6,��
2018/06/21,15:40,0.855,1.198,0.830,1.493,1.046,0.470,0.814,0.776,��쓌,5.9,��
2018/06/21,15:50,0.852,1.197,0.832,1.496,1.044,0.471,0.815,0.777,��쓌,7.4,��
2018/06/21,16:00,0.854,1.199,0.830,1.495,1.044,0.471,0.814,0.776,��쓌,9.1,��
2018/06/21,16:10,0.853,1.199,0.831,1.497,1.042,0.470,0.815,0.777,��쓌,7.6,��
2018/06/21,16:20,0.853,1.201,0.831,1.495,1.044,0.469,0.814,0.778,��쓌,4.7,��
2018/06/21,16:30,0.853,1.200,0.832,1.499,1.044,0.470,0.816,0.778,��쓌,4.6,��
2018/06/21,16:40,0.854,1.202,0.832,1.495,1.043,0.471,0.815,0.778,��,4.8,��
2018/06/21,16:50,0.856,1.201,0.832,1.496,1.045,0.473,0.816,0.776,��,4.0,��
2018/06/21,17:00,0.855,1.202,0.832,1.498,1.045,0.473,0.815,0.779,��,3.6,��
2018/06/21,17:10,0.856,1.203,0.834,1.496,1.045,0.471,0.816,0.778,��,4.0,��
2018/06/21,17:20,0.857,1.203,0.834,1.500,1.044,0.472,0.816,0.776,��쐼,3.1,��
2018/06/21,17:30,0.857,1.202,0.833,1.498,1.043,0.472,0.816,0.778,��,2.8,��
2018/06/21,17:40,0.855,1.201,0.832,1.499,1.044,0.471,0.816,0.778,��,2.6,��
2018/06/21,17:50,0.856,1.203,0.834,1.498,1.045,0.472,0.818,0.780,��쐼,1.7,��
2018/06/21,18:00,0.856,1.203,0.834,1.499,1.046,0.473,0.816,0.779,�쐼,1.5,��
2018/06/21,18:10,0.856,1.204,0.834,1.499,1.043,0.472,0.817,0.778,��,2.0,��
2018/06/21,18:20,0.855,1.205,0.834,1.500,1.046,0.473,0.816,0.779,��쐼,2.6,��
2018/06/21,18:30,0.858,1.202,0.831,1.501,1.045,0.472,0.816,0.779,��쐼,2.6,��
2018/06/21,18:40,0.857,1.204,0.836,1.501,1.046,0.474,0.816,0.778,��쐼,2.3,��
2018/06/21,18:50,0.858,1.203,0.837,1.503,1.047,0.475,0.818,0.780,��쐼,2.0,��
2018/06/21,19:00,0.858,1.207,0.837,1.504,1.050,0.474,0.816,0.782,��쐼,2.0,��
2018/06/21,19:10,0.860,1.205,0.836,1.504,1.048,0.474,0.815,0.781,��쐼,2.0,��
2018/06/21,19:20,0.858,1.204,0.837,1.504,1.048,0.473,0.816,0.782,��쐼,2.3,��
2018/06/21,19:30,0.859,1.206,0.839,1.508,1.049,0.473,0.816,0.780,��쐼,2.5,��
2018/06/21,19:40,0.861,1.201,0.837,1.506,1.048,0.475,0.816,0.780,��쐼,3.2,��
2018/06/21,19:50,0.860,1.206,0.837,1.505,1.049,0.474,0.818,0.782,�쐼,2.6,��
2018/06/21,20:00,0.858,1.204,0.836,1.503,1.047,0.474,0.819,0.781,�쐼,2.6,��
2018/06/21,20:10,0.859,1.205,0.837,1.506,1.045,0.474,0.818,0.781,���쐼,2.6,��
2018/06/21,20:20,0.859,1.203,0.838,1.508,1.048,0.473,0.818,0.782,��,3.0,��
2018/06/21,20:30,0.859,1.203,0.838,1.503,1.049,0.474,0.819,0.780,��,5.1,��
2018/06/21,20:40,0.861,1.204,0.836,1.504,1.048,0.472,0.819,0.781,��,4.3,��
2018/06/21,20:50,0.860,1.204,0.838,1.505,1.049,0.473,0.818,0.783,���쐼,2.0,��
2018/06/21,21:00,0.859,1.203,0.836,1.505,1.049,0.475,0.819,0.781,��쐼,1.2,��
2018/06/21,21:10,0.861,1.202,0.836,1.505,1.050,0.476,0.818,0.780,��쓌,1.2,��
2018/06/21,21:20,0.859,1.203,0.837,1.506,1.048,0.474,0.818,0.780,��쓌,2.5,��
2018/06/21,21:30,0.860,1.204,0.837,1.504,1.049,0.474,0.819,0.779,��,2.0,��
2018/06/21,21:40,0.859,1.205,0.836,1.504,1.049,0.474,0.819,0.780,��,1.7,��
2018/06/21,21:50,0.859,1.204,0.835,1.503,1.048,0.475,0.818,0.783,�쐼,1.9,��
2018/06/21,22:00,0.859,1.204,0.836,1.504,1.048,0.475,0.818,0.781,-,CALM,��
2018/06/21,22:10,0.860,1.204,0.837,1.505,1.048,0.474,0.818,0.780,-,CALM,��
2018/06/21,22:20,0.862,1.204,0.837,1.504,1.049,0.473,0.818,0.783,�k�k��,1.5,��
2018/06/21,22:30,0.860,1.203,0.835,1.506,1.049,0.475,0.818,0.781,���k��,3.4,��
2018/06/21,22:40,0.860,1.203,0.837,1.507,1.049,0.474,0.818,0.781,���k��,6.2,��
2018/06/21,22:50,0.859,1.205,0.837,1.506,1.049,0.474,0.817,0.781,���k��,6.8,��
2018/06/21,23:00,0.859,1.204,0.837,1.505,1.046,0.474,0.818,0.781,���k��,7.6,��
2018/06/21,23:10,0.859,1.202,0.838,1.509,1.048,0.474,0.820,0.782,���k��,7.5,��
2018/06/21,23:20,0.859,1.203,0.839,1.505,1.051,0.474,0.820,0.781,��,7.2,��
2018/06/21,23:30,0.861,1.204,0.839,1.508,1.049,0.473,0.819,0.782,���k��,9.0,��
2018/06/21,23:40,0.859,1.203,0.839,1.510,1.050,0.475,0.819,0.781,���k��,10.6,��
2018/06/21,23:50,0.859,1.203,0.838,1.511,1.048,0.473,0.820,0.782,���k��,13.0,��
